FW3795 Weather Reports


time (UTC)temp
C
wind
direction
speed
KPH
gust
KPH
rain 1hr
cm
rain 24hr
cm
rain mn
cm
humidity
%
barometer
mb
20260504050007 9 185 0.0 0.0 0.00 0.00 0.00 56 1009.5
20260504044504 9 185 1.6 9.7 0.00 0.00 0.00 54 1009.4
20260504043002 9 243 1.6 6.4 0.00 0.00 0.00 56 1009.7
20260504041602 9 238 1.6 4.8 0.00 0.00 0.00 55 1009.7
20260504040055 10 244 0.0 0.0 0.00 0.00 0.00 54 1009.8
20260504034554 10 244 0.0 3.2 0.00 0.00 0.00 52 1009.7
20260504033054 10 244 1.6 4.8 0.00 0.00 0.00 50 1009.8
20260504031554 11 244 0.0 1.6 0.00 0.00 0.00 47 1009.8
20260504030054 11 244 1.6 6.4 0.00 0.00 0.00 46 1009.9
20260504024608 11 220 4.8 11.3 0.00 0.00 0.00 44 1010.0
20260504023053 11 209 3.2 6.4 0.00 0.00 0.00 43 1010.3
20260504021552 12 221 4.8 11.3 0.00 0.00 0.00 42 1010.3
20260504020051 12 242 1.6 8.0 0.00 0.00 0.00 42 1010.4
20260504014556 12 209 1.6 11.3 0.00 0.00 0.00 41 1010.6
20260504013054 12 228 1.6 14.5 0.00 0.00 0.00 40 1010.6
20260504011551 12 250 6.4 17.7 0.00 0.00 0.00 38 1010.5
20260504010049 12 221 9.7 19.3 0.00 0.00 0.00 38 1010.4
20260504004549 12 264 19.3 32.2 0.00 0.00 0.00 37 1010.3
20260504003053 12 257 11.3 37.0 0.00 0.00 0.00 37 1010.2
20260504001549 13 272 20.9 38.6 0.00 0.00 0.00 35 1010.3
20260504000113 13 278 29.0 38.6 0.00 0.00 0.00 34 1010.1
20260503234553 13 305 29.0 51.5 0.00 0.00 0.00 34 1009.9
20260503233045 13 303 29.0 48.3 0.00 0.00 0.00 34 1009.7
20260503231545 13 248 12.9 29.0 0.00 0.00 0.00 34 1009.8
20260503230050 13 268 17.7 33.8 0.00 0.00 0.00 34 1009.7
20260503224544 13 262 29.0 40.2 0.00 0.00 0.00 34 1009.7
20260503223042 13 282 24.1 46.7 0.00 0.00 0.00 34 1009.6
20260503221549 13 300 16.1 22.5 0.00 0.00 0.00 37 1009.4
20260503220041 13 282 16.1 22.5 0.00 0.00 0.00 38 1009.4
20260503214543 13 266 22.5 30.6 0.00 0.00 0.00 37 1009.5
20260503213040 13 238 14.5 32.2 0.00 0.00 0.00 37 1009.6
20260503211539 13 249 11.3 27.4 0.00 0.00 0.00 39 1009.6
20260503210037 13 229 11.3 24.1 0.00 0.00 0.00 38 1009.7
20260503204533 13 246 19.3 32.2 0.00 0.00 0.00 39 1009.8
20260503203040 12 205 9.7 19.3 0.00 0.00 0.00 39 1010.1
20260503201534 12 273 12.9 22.5 0.00 0.00 0.00 40 1010.2
20260503200027 12 267 12.9 29.0 0.00 0.00 0.00 41 1010.4
20260503194526 12 291 14.5 30.6 0.00 0.00 0.00 40 1010.5
20260503193024 11 263 17.7 33.8 0.00 0.00 0.00 40 1010.9
20260503191522 11 211 14.5 25.7 0.00 0.00 0.00 41 1011.1
20260503190020 11 290 25.7 38.6 0.00 0.00 0.00 41 1011.4
20260503184522 11 296 20.9 38.6 0.00 0.00 0.00 39 1011.4
20260503183018 12 312 14.5 29.0 0.00 0.00 0.00 42 1011.4
20260503181517 11 295 22.5 49.9 0.00 0.00 0.00 41 1011.6
20260503180025 11 321 24.1 40.2 0.00 0.00 0.00 40 1011.7
20260503174516 11 257 17.7 35.4 0.00 0.00 0.00 41 1011.8
20260503173018 11 271 24.1 38.6 0.00 0.00 0.00 41 1011.9
20260503171509 11 306 20.9 32.2 0.00 0.00 0.00 40 1012.1
20260503081521 3 278 16.1 22.5 0.00 0.00 0.00 70 1013.6
20260503071507 3 263 6.4 11.3 0.00 0.00 0.00 68 1013.4
20260503060111 3 242 1.6 8.0 0.00 0.00 0.00 69 1013.8
20260503054610 3 240 3.2 11.3 0.00 0.00 0.00 69 1013.9
20260503053056 3 220 3.2 8.0 0.00 0.00 0.00 68 1014.0